Weather in Bol'shoy Kuglanur

Russia / Mari El Republic     57°04′32″N   48°16′22″E
temp.,
°C
wind,
m/s
gust,
m/s
humid.,
%
clouds,
%
prec.,
mm/h
press.,
hPa
HPBL,
m
16 may, sun
sun1600:00+17s410735 0.0 1014168
03:00+16s47785 0.0 1015102
06:00+18s487372 0.0 1014200
09:00+23ssw6105196 0.0 1014640
12:00+26ssw71041100 0.0 10141246
15:00+27sw61348100 0.0 10141953
18:00+20wsw61366100 0.5 1014547
21:00+16sw348088 0.5 101565
17 may, mon
mon1700:00+15ssw33884 0.4 101544
03:00+14sw239132 0.5 101636
06:00+17sw348411 0.0 1017167
09:00+22w355897 0.0 1018594
12:00+25w344278 0.0 10181370
15:00+25wnw344311 0.0 10181512
18:00+24n22565 0.0 101750
21:00+18ne226449 0.0 101812
18 may, tue
tue1800:00+16ene337237 0.1 101921
03:00+15ene4577100 0.1 101977
06:00+17ene4876100 0.0 1020214
09:00+21ese566073 0.0 1020655
12:00+24e455146 0.0 1020996
15:00+25e554831 0.0 10191083
18:00+23e48595 0.0 1019259
21:00+17e4107216 0.1 1020165
19 may, wed
wed1900:00+15ese411725 0.0 1020188
03:00+14ese4117539 0.0 1020195
06:00+17se511735 0.0 1020312
09:00+22se67555 0.0 1020714
12:00+24se66425 0.0 10191204
15:00+25se56395 0.0 10191419
18:00+22se48570 0.0 1018263
21:00+17ese411690 0.0 1018167
20 may, thu
thu2000:00+15se412770 0.0 1017194
03:00+15se412790 0.0 1017208
06:00+17se511710 0.0 1017324
09:00+22se685111 0.0 1017728
12:00+25sse784144 0.0 10161415
15:00+25sse78435 0.0 10151583
18:00+22se510561 0.0 1015347
21:00+17se513660 0.0 1015263